Big Rapids, MI

11:45 PM EDT on September 22, 2019 (GMT -0400)
Roben-Hood

Weather History for KRQB - August, 2019

Change the Weather History Date:

Sunday, August 18, 2019

  Actual Average Record
Temperature  
Mean Temperature 68 °F -  
Max Temperature 77 °F 78 °F 89 °F (1983)
Min Temperature 60 °F 54 °F 21 °F (1998)
Cooling Degree Days 4    
Growing Degree Days 18 (Base 50)    
Moisture  
Dew Point 65 °F    
Average Humidity 89    
Maximum Humidity 98    
Minimum Humidity 67    
Precipitation  
Precipitation 0.00 in - - ()
Sea Level Pressure  
Sea Level Pressure 29.85 in    
Wind  
Wind Speed 4 mph (SW)    
Max Wind Speed 16 mph    
Max Gust Speed 26 mph    
Visibility 8 miles    
Events Fog , Rain    
Averages and records for this station are not official NWS values.
T = Trace of Precipitation, MM = Missing Value Source: NWS Daily Summary

Daily Weather History Graph

Daily Weather History Graph

Search for Another Location

Airport or City:

Astronomy

Aug. 18, 2019 Rise Set
Actual Time 6:49 AM EDT 8:41 PM EDT
Civil Twilight 6:18 AM EDT 9:12 PM EDT
Nautical Twilight 5:41 AM EDT 9:49 PM EDT
Astronomical Twilight 5:00 AM EDT 10:30 PM EDT
Moon 10:30 PM EDT (8/18) 9:38 AM EDT (8/18)
Length of Visible Light 14h 53m
Length of Day
13h 51m
Waning Gibbous, 91% of the Moon is Illuminated
Aug 18
Waning Gibbous
Aug 23
Last Quarter
Aug 30
New
Sep 5
First Quarter
Sep 14
Full

Hourly Weather History & Observations

Time (EDT) Temp. Dew Point Humidity Pressure Visibility Wind Dir Wind Speed Gust Speed Precip Events Conditions
12:00 AM 66.6 °F 64.8 °F 94% 29.90 in 10.0 mi Calm Calm - N/A   Scattered Clouds
12:18 AM 67.1 °F 65.3 °F 94% 29.91 in 10.0 mi West 8.1 mph - N/A   Mostly Cloudy
12:36 AM 66.7 °F 65.1 °F 95% 29.91 in 10.0 mi Calm Calm - N/A   Overcast
12:55 AM 66.2 °F 64.8 °F 95% 29.91 in 10.0 mi Calm Calm - N/A   Mostly Cloudy
12:56 AM 66.2 °F 64.8 °F 95% 29.91 in 10.0 mi Calm Calm - N/A   Mostly Cloudy
1:15 AM 65.3 °F 63.9 °F 95% 29.91 in 10.0 mi Calm Calm - N/A   Clear
1:39 AM 64.9 °F 63.9 °F 96% 29.90 in 7.0 mi Calm Calm - N/A   Scattered Clouds
1:57 AM 64.8 °F 63.5 °F 96% 29.90 in 10.0 mi Calm Calm - N/A   Scattered Clouds
2:15 AM 64.2 °F 63.0 °F 96% 29.91 in 10.0 mi SE 4.6 mph - N/A   Scattered Clouds
2:16 AM 64.0 °F 62.6 °F 95% 29.91 in 10.0 mi SSE 3.5 mph - N/A   Scattered Clouds
2:35 AM 63.1 °F 62.1 °F 96% 29.90 in 10.0 mi Calm Calm - N/A   Mostly Cloudy
2:55 AM 64.4 °F 63.3 °F 96% 29.89 in 10.0 mi NNW 3.5 mph - N/A   Mostly Cloudy
3:00 AM 64.0 °F 63.0 °F 96% 29.89 in 10.0 mi Calm Calm - N/A   Scattered Clouds
3:18 AM 63.1 °F 62.2 °F 97% 29.89 in 7.0 mi Calm Calm - N/A   Scattered Clouds
3:36 AM 62.4 °F 61.3 °F 96% 29.88 in 7.0 mi Calm Calm - N/A   Scattered Clouds
3:55 AM 62.1 °F 61.2 °F 97% 29.87 in 2.5 mi North 3.5 mph - N/A   Mostly Cloudy
4:15 AM 62.1 °F 61.2 °F 97% 29.87 in 4.0 mi Calm Calm - N/A   Mostly Cloudy
4:16 AM 62.1 °F 61.2 °F 97% 29.87 in 3.0 mi Calm Calm - N/A   Mostly Cloudy
4:39 AM 61.3 °F 60.4 °F 97% 29.87 in 0.8 mi Calm Calm - N/A   Overcast
4:57 AM 61.7 °F 61.0 °F 97% 29.88 in 10.0 mi NNE 3.5 mph - N/A   Mostly Cloudy
5:15 AM 61.3 °F 60.6 °F 97% 29.88 in 10.0 mi Calm Calm - N/A   Scattered Clouds
5:35 AM 61.2 °F 60.4 °F 97% 29.87 in 0.8 mi Calm Calm - N/A   Overcast
5:36 AM 61.2 °F 60.4 °F 97% 29.87 in 0.8 mi Calm Calm - N/A   Overcast
5:55 AM 60.4 °F 59.7 °F 97% 29.87 in 0.5 mi Calm Calm - N/A Fog Fog
6:18 AM 60.8 °F 60.1 °F 97% 29.87 in 0.5 mi Calm Calm - N/A Fog Fog
6:36 AM 61.0 °F 60.3 °F 97% 29.86 in 7.0 mi Calm Calm - N/A   Overcast
6:55 AM 61.7 °F 61.0 °F 97% 29.84 in 7.0 mi Calm Calm - N/A   Overcast
6:56 AM 61.9 °F 61.2 °F 97% 29.84 in 7.0 mi Calm Calm - N/A   Overcast
7:15 AM 62.8 °F 62.1 °F 97% 29.85 in 7.0 mi Calm Calm - N/A   Overcast
7:20 AM 63.0 °F 62.2 °F 97% 29.84 in 7.0 mi Calm Calm - N/A   Overcast
7:38 AM 63.3 °F 62.6 °F 97% 29.85 in 3.0 mi Calm Calm - N/A   Overcast
7:56 AM 64.6 °F 63.9 °F 98% 29.84 in 0.2 mi SSE 4.6 mph - N/A Fog Fog
8:15 AM 66.2 °F 65.3 °F 97% 29.85 in 0.2 mi ESE 4.6 mph - N/A Fog Fog
8:35 AM 67.5 °F 66.7 °F 98% 29.84 in 0.2 mi SSE 6.9 mph - N/A Fog Fog
8:36 AM 67.5 °F 66.7 °F 98% 29.84 in 0.2 mi SSE 6.9 mph - N/A Fog Fog
8:58 AM 68.2 °F 67.5 °F 98% 29.84 in 0.5 mi South 6.9 mph - N/A Fog Fog
9:15 AM 68.4 °F 67.8 °F 98% 29.84 in 0.2 mi SSE 8.1 mph - N/A Fog Fog
9:35 AM 69.1 °F 68.4 °F 98% 29.84 in 2.0 mi South 6.9 mph - N/A   Overcast
9:55 AM 69.8 °F 69.1 °F 98% 29.84 in 4.0 mi South 11.5 mph - N/A   Overcast
10:00 AM 70.0 °F 69.3 °F 98% 29.83 in 5.0 mi South 10.4 mph - N/A   Overcast
10:17 AM 71.2 °F 70.2 °F 96% 29.84 in 7.0 mi South 10.4 mph - N/A   Overcast
10:35 AM 72.5 °F 70.9 °F 95% 29.84 in 10.0 mi South 10.4 mph 16.1 mph N/A   Mostly Cloudy
10:36 AM 72.7 °F 70.9 °F 94% 29.84 in 10.0 mi South 10.4 mph 16.1 mph N/A   Mostly Cloudy
10:55 AM 73.6 °F 69.1 °F 86% 29.83 in 10.0 mi South 11.5 mph 21.9 mph N/A   Mostly Cloudy
10:56 AM 73.6 °F 68.9 °F 85% 29.83 in 10.0 mi South 15.0 mph 20.7 mph N/A   Mostly Cloudy
11:19 AM 74.5 °F 68.9 °F 83% 29.83 in 10.0 mi South 12.7 mph 20.7 mph N/A   Overcast
11:37 AM 74.7 °F 69.1 °F 83% 29.84 in 10.0 mi South 10.4 mph 18.4 mph N/A   Overcast
11:55 AM 74.5 °F 68.9 °F 83% 29.89 in 10.0 mi SW 15.0 mph - N/A Rain Heavy Rain
12:15 PM 68.2 °F 64.8 °F 89% 29.89 in 2.0 mi SSW 9.2 mph 25.3 mph N/A Rain Rain
12:16 PM 68.0 °F 64.8 °F 89% 29.89 in 2.0 mi South 10.4 mph 25.3 mph N/A Rain Rain
12:35 PM 66.7 °F 64.4 °F 92% 29.86 in 5.0 mi South 5.8 mph - N/A Rain Rain
12:58 PM 66.4 °F 64.6 °F 94% 29.82 in 10.0 mi SSE 8.1 mph - N/A Rain Rain
1:16 PM 66.9 °F 65.3 °F 95% 29.81 in 10.0 mi SSE 9.2 mph - N/A Rain Light Rain
1:35 PM 67.6 °F 66.2 °F 95% 29.77 in 10.0 mi SSE 11.5 mph - N/A   Scattered Clouds
1:36 PM 67.8 °F 66.4 °F 95% 29.77 in 10.0 mi SSE 12.7 mph - N/A   Scattered Clouds
1:55 PM 69.1 °F 67.3 °F 94% 29.77 in 10.0 mi South 11.5 mph - N/A   Clear
2:19 PM 71.4 °F 67.6 °F 88% 29.76 in 10.0 mi South 9.2 mph - N/A   Clear
2:37 PM 73.6 °F 67.5 °F 81% 29.77 in 10.0 mi SSW 8.1 mph - N/A   Clear
2:55 PM 74.8 °F 67.3 °F 77% 29.77 in 10.0 mi SSW 8.1 mph 17.3 mph N/A   Clear
2:56 PM 74.8 °F 67.1 °F 77% 29.77 in 10.0 mi SW 9.2 mph 17.3 mph N/A   Clear
3:16 PM 77.0 °F 68.2 °F 74% 29.77 in 10.0 mi SW 5.8 mph - N/A   Clear
3:37 PM 77.9 °F 66.4 °F 68% 29.77 in 10.0 mi WSW 13.8 mph 20.7 mph N/A   Clear
3:56 PM 77.0 °F 66.2 °F 69% 29.79 in 10.0 mi WSW 9.2 mph 18.4 mph N/A   Clear
4:15 PM 77.7 °F 65.8 °F 67% 29.79 in 10.0 mi WSW 13.8 mph 25.3 mph N/A   Clear
4:35 PM 77.0 °F 66.0 °F 69% 29.80 in 10.0 mi WSW 12.7 mph - N/A   Scattered Clouds
4:36 PM 77.0 °F 66.2 °F 69% 29.80 in 10.0 mi West 11.5 mph - N/A   Scattered Clouds
4:59 PM 74.5 °F 65.7 °F 74% 29.80 in 10.0 mi WSW 16.1 mph 26.5 mph N/A   Scattered Clouds
5:17 PM 73.6 °F 66.2 °F 78% 29.81 in 10.0 mi WSW 11.5 mph 23.0 mph N/A   Scattered Clouds
5:35 PM 73.6 °F 66.4 °F 78% 29.81 in 10.0 mi WSW 12.7 mph 18.4 mph N/A   Scattered Clouds
5:55 PM 73.6 °F 66.6 °F 79% 29.82 in 10.0 mi West 13.8 mph 17.3 mph N/A   Scattered Clouds
5:56 PM 73.8 °F 66.4 °F 78% 29.82 in 10.0 mi WSW 13.8 mph 17.3 mph N/A   Scattered Clouds
6:15 PM 73.8 °F 65.3 °F 75% 29.82 in 10.0 mi West 12.7 mph 18.4 mph N/A   Scattered Clouds
6:38 PM 73.0 °F 65.3 °F 77% 29.83 in 10.0 mi West 8.1 mph - N/A   Scattered Clouds
6:56 PM 72.7 °F 65.3 °F 78% 29.83 in 10.0 mi West 6.9 mph - N/A   Scattered Clouds
7:15 PM 72.9 °F 65.5 °F 78% 29.83 in 10.0 mi West 6.9 mph - N/A   Scattered Clouds
7:38 PM 73.8 °F 65.5 °F 75% 29.82 in 10.0 mi West 8.1 mph - N/A   Scattered Clouds
7:55 PM 73.4 °F 64.0 °F 72% 29.81 in 10.0 mi West 9.2 mph - N/A   Scattered Clouds
8:15 PM 72.3 °F 63.9 °F 75% 29.81 in 10.0 mi West 8.1 mph - N/A   Clear
8:35 PM 71.2 °F 63.9 °F 77% 29.82 in 10.0 mi West 9.2 mph - N/A   Clear
8:36 PM 71.2 °F 63.9 °F 77% 29.82 in 10.0 mi West 8.1 mph - N/A   Clear
8:59 PM 70.2 °F 64.0 °F 81% 29.83 in 10.0 mi West 6.9 mph - N/A   Clear
9:17 PM 70.0 °F 63.7 °F 80% 29.84 in 10.0 mi West 4.6 mph - N/A   Clear
9:35 PM 69.3 °F 63.5 °F 82% 29.84 in 10.0 mi WSW 3.5 mph - N/A   Clear
9:55 PM 67.6 °F 63.3 °F 86% 29.86 in 10.0 mi WSW 4.6 mph - N/A   Clear
9:56 PM 67.6 °F 63.5 °F 87% 29.86 in 10.0 mi WSW 3.5 mph - N/A   Clear
10:15 PM 66.6 °F 63.3 °F 89% 29.86 in 10.0 mi Calm Calm - N/A   Clear
10:37 PM 66.4 °F 63.5 °F 90% 29.86 in 10.0 mi Calm Calm - N/A   Clear
10:55 PM 65.5 °F 62.8 °F 91% 29.87 in 10.0 mi Calm Calm - N/A   Clear
10:56 PM 65.3 °F 62.8 °F 92% 29.87 in 10.0 mi Calm Calm - N/A   Clear
11:15 PM 65.3 °F 62.8 °F 92% 29.89 in 10.0 mi Calm Calm - N/A   Clear
11:35 PM 64.4 °F 62.4 °F 93% 29.89 in 10.0 mi West 3.5 mph - N/A   Clear
11:40 PM 64.6 °F 62.4 °F 93% 29.89 in 10.0 mi SW 3.5 mph - N/A   Clear
11:58 PM 64.8 °F 62.8 °F 93% 29.90 in 10.0 mi West 3.5 mph - N/A   Clear